Погода в Молочном

Россия / Республика Крым     45°11′49″N   33°13′29″E
темп.,
°C
ветер,
м/с
пор.,
м/с
влажн.,
%
обл.,
%
осадки,
мм/ч
давл.,
гПа
погр.,
м
11 апреля, вс
вс1100:00+6ссз611655 0.0 1024218
03:00+6с6126789 0.0 1024250
06:00+5ссв7146610 0.0 1024290
09:00+10ссв8135486 0.0 1024690
12:00+13св81147100 0.0 10231188
15:00+12св5854100 0.0 10221109
18:00+11ссв2363100 0.1 1022158
21:00+11ссв51157100 0.1 1021340
12 апреля, пн
пн1200:00+10с51163100 0.0 1020224
03:00+9св5968100 0.1 1020353
06:00+8с4888100 1.9 1020302
09:00+8ссв3586100 2.3 1020292
12:00+10св2383100 0.1 1020431
15:00+11з217697 0.1 1020590
18:00+10юз3382100 0.0 1020159
21:00+9юз1185100 0.0 102132
13 апреля, вт
вт1300:00+9ююз3488100 0.0 1021185
03:00+8юз339086 0.0 1021116
06:00+8юз2286100 0.0 102173
09:00+10ююз347996 0.0 1021443
12:00+11ююз4575100 0.0 1021536
15:00+11ююз4575100 0.0 1021542
18:00+10ююз4482100 0.0 1020447
21:00+8ю3393100 0.0 102071
14 апреля, ср
ср1400:00+9ю359172 0.0 1019258
03:00+8ю339298 0.0 101889
06:00+7вюв229171 0.0 101851
09:00+10в4577100 0.0 1017411
12:00+13юв2360100 0.0 1016755
15:00+14юз3356100 0.0 1015668
18:00+12з336168 0.0 1014225
21:00+9ссв227359 0.0 101421
15 апреля, чт
чт1500:00+11всв2265100 0.0 101335
03:00+10в3469100 0.0 101371
06:00+10юв2277100 0.1 101338
09:00+9юв0194100 3.8 101367
12:00+10юв1194100 10.3 1013192
15:00+10ююз3692100 11.9 1013428
18:00+9з699394 0.2 1014459
21:00+9зюз689550 0.3 1014379